�������l�o���
Date,Time,MP-1(��Sv/h),MP-2(��Sv/h),MP-3(��Sv/h),MP-4(��Sv/h),MP-5(��Sv/h),MP-6(��Sv/h),MP-7(��Sv/h),MP-8(��Sv/h),����,����(m/s),���J
2018/12/19,00:00,0.775,1.166,0.812,1.477,1.049,0.450,0.796,0.754,���k��,7.0,��
2018/12/19,00:10,0.777,1.166,0.813,1.479,1.049,0.450,0.794,0.755,���k��,7.8,��
2018/12/19,00:20,0.774,1.166,0.812,1.479,1.048,0.450,0.797,0.754,���k��,7.3,��
2018/12/19,00:30,0.774,1.166,0.809,1.478,1.047,0.452,0.796,0.755,��,7.1,��
2018/12/19,00:40,0.776,1.163,0.811,1.478,1.047,0.452,0.796,0.755,���k��,6.8,��
2018/12/19,00:50,0.777,1.164,0.809,1.477,1.045,0.450,0.795,0.755,��,5.9,��
2018/12/19,01:00,0.774,1.164,0.810,1.479,1.047,0.451,0.796,0.754,���k��,7.6,��
2018/12/19,01:10,0.775,1.166,0.809,1.480,1.047,0.450,0.795,0.754,��,7.5,��
2018/12/19,01:20,0.775,1.163,0.808,1.477,1.047,0.451,0.796,0.755,��,6.8,��
2018/12/19,01:30,0.777,1.165,0.809,1.478,1.046,0.450,0.795,0.755,��,7.9,��
2018/12/19,01:40,0.774,1.165,0.810,1.478,1.047,0.450,0.796,0.755,��,7.9,��
2018/12/19,01:50,0.775,1.165,0.808,1.480,1.047,0.452,0.794,0.754,��,6.8,��
2018/12/19,02:00,0.775,1.165,0.809,1.479,1.047,0.450,0.794,0.753,��,7.1,��
2018/12/19,02:10,0.774,1.164,0.809,1.477,1.046,0.449,0.794,0.756,��,5.8,��
2018/12/19,02:20,0.773,1.163,0.812,1.480,1.047,0.452,0.795,0.754,��,5.3,��
2018/12/19,02:30,0.775,1.165,0.809,1.479,1.046,0.450,0.796,0.756,��,4.6,��
2018/12/19,02:40,0.774,1.165,0.808,1.480,1.048,0.450,0.796,0.755,��,5.3,��
2018/12/19,02:50,0.774,1.163,0.809,1.479,1.047,0.450,0.795,0.755,��,4.7,��
2018/12/19,03:00,0.773,1.164,0.808,1.480,1.046,0.448,0.795,0.754,��,4.5,��
2018/12/19,03:10,0.775,1.163,0.809,1.478,1.046,0.449,0.796,0.755,���k��,4.7,��
2018/12/19,03:20,0.772,1.164,0.810,1.476,1.047,0.450,0.795,0.754,��,4.0,��
2018/12/19,03:30,0.774,1.163,0.809,1.477,1.046,0.450,0.795,0.756,���k��,6.2,��
2018/12/19,03:40,0.775,1.165,0.809,1.477,1.045,0.449,0.795,0.755,���k��,6.7,��
2018/12/19,03:50,0.773,1.165,0.811,1.478,1.045,0.450,0.794,0.756,���k��,6.4,��
2018/12/19,04:00,0.776,1.162,0.810,1.477,1.043,0.450,0.794,0.754,���k��,7.1,��
2018/12/19,04:10,0.774,1.167,0.808,1.477,1.045,0.449,0.794,0.754,���k��,4.2,��
2018/12/19,04:20,0.774,1.163,0.810,1.477,1.045,0.449,0.794,0.755,�k��,3.3,��
2018/12/19,04:30,0.772,1.164,0.813,1.479,1.046,0.449,0.795,0.756,�k��,3.5,��
2018/12/19,04:40,0.773,1.163,0.812,1.475,1.045,0.448,0.795,0.755,���k��,3.8,��
2018/12/19,04:50,0.774,1.161,0.812,1.478,1.046,0.449,0.795,0.754,���k��,4.7,��
2018/12/19,05:00,0.773,1.163,0.812,1.477,1.045,0.449,0.794,0.755,���k��,5.0,��
2018/12/19,05:10,0.772,1.162,0.812,1.477,1.044,0.450,0.794,0.754,���k��,5.7,��
2018/12/19,05:20,0.774,1.163,0.814,1.475,1.046,0.449,0.796,0.755,���k��,6.3,��
2018/12/19,05:30,0.773,1.162,0.811,1.479,1.045,0.448,0.795,0.754,���k��,4.5,��
2018/12/19,05:40,0.772,1.159,0.812,1.479,1.046,0.449,0.795,0.755,���k��,4.2,��
2018/12/19,05:50,0.774,1.164,0.811,1.478,1.044,0.449,0.793,0.754,��,4.5,��
2018/12/19,06:00,0.774,1.162,0.812,1.478,1.045,0.450,0.795,0.753,��,4.5,��
2018/12/19,06:10,0.772,1.163,0.812,1.475,1.045,0.450,0.794,0.754,��,5.8,��
2018/12/19,06:20,0.774,1.166,0.812,1.475,1.045,0.448,0.794,0.754,���k��,5.4,��
2018/12/19,06:30,0.774,1.163,0.811,1.478,1.044,0.450,0.794,0.752,��,3.9,��
2018/12/19,06:40,0.773,1.164,0.810,1.475,1.043,0.450,0.793,0.752,���쐼,3.0,��
2018/12/19,06:50,0.772,1.164,0.811,1.475,1.045,0.448,0.794,0.755,���쐼,3.2,��
2018/12/19,07:00,0.774,1.163,0.812,1.475,1.045,0.449,0.793,0.753,���쐼,3.6,��
2018/12/19,07:10,0.775,1.161,0.810,1.477,1.044,0.449,0.792,0.753,�쐼,3.8,��
2018/12/19,07:20,0.774,1.161,0.810,1.477,1.045,0.449,0.793,0.753,���쐼,4.2,��
2018/12/19,07:30,0.774,1.162,0.809,1.476,1.046,0.449,0.794,0.753,���쐼,4.8,��
2018/12/19,07:40,0.772,1.162,0.811,1.477,1.045,0.448,0.792,0.754,���쐼,4.7,��
2018/12/19,07:50,0.773,1.164,0.811,1.479,1.046,0.449,0.796,0.755,���쐼,5.5,��
2018/12/19,08:00,0.775,1.163,0.810,1.477,1.046,0.448,0.794,0.754,���쐼,5.5,��
2018/12/19,08:10,0.776,1.163,0.812,1.476,1.043,0.448,0.795,0.755,���쐼,5.0,��
2018/12/19,08:20,0.775,1.161,0.812,1.477,1.045,0.450,0.795,0.756,���쐼,4.8,��
2018/12/19,08:30,0.774,1.160,0.809,1.475,1.045,0.449,0.796,0.754,���쐼,4.2,��
2018/12/19,08:40,0.776,1.162,0.810,1.478,1.044,0.450,0.796,0.755,���쐼,4.7,��
2018/12/19,08:50,0.776,1.160,0.810,1.478,1.044,0.451,0.794,0.756,���쐼,3.5,��
2018/12/19,09:00,0.774,1.161,0.811,1.477,1.046,0.450,0.798,0.756,���쐼,3.0,��
2018/12/19,09:10,0.776,1.162,0.809,1.478,1.048,0.450,0.796,0.755,���쐼,2.8,��
2018/12/19,09:20,0.775,1.160,0.810,1.478,1.047,0.449,0.798,0.754,���쐼,3.1,��
2018/12/19,09:30,0.776,1.159,0.808,1.479,1.046,0.450,0.797,0.755,���쐼,3.0,��
2018/12/19,09:40,0.777,1.160,0.813,1.477,1.049,0.451,0.798,0.755,���쐼,3.9,��
2018/12/19,09:50,0.776,1.157,0.811,1.478,1.046,0.451,0.796,0.755,���쐼,3.9,��
2018/12/19,10:00,0.776,1.159,0.812,1.478,1.046,0.451,0.795,0.757,��,2.6,��
2018/12/19,10:10,0.773,1.157,0.814,1.478,1.048,0.452,0.795,0.756,���쐼,2.2,��
2018/12/19,10:20,0.770,1.157,0.812,1.480,1.031,0.451,0.794,0.755,���쐼,2.8,��
2018/12/19,10:30,0.771,1.157,0.812,1.479,1.026,0.453,0.795,0.755,��,1.1,��
2018/12/19,10:40,0.771,1.157,0.811,1.480,-,0.451,0.796,0.756,�k��,0.8,��
2018/12/19,10:50,0.777,1.155,0.811,1.479,1.037,0.451,0.795,0.757,�쓌,1.5,��
2018/12/19,11:00,0.775,1.134,0.809,1.480,1.041,0.453,0.796,0.756,���쓌,2.9,��
2018/12/19,11:10,0.779,1.120,0.814,1.478,1.044,0.452,0.795,0.757,��쓌,3.6,��
2018/12/19,11:20,0.777,1.106,0.812,1.481,1.045,0.452,0.797,0.756,�쐼,3.1,��
2018/12/19,11:30,0.779,1.108,0.814,1.481,1.048,0.452,0.794,0.758,�쐼,6.5,��
2018/12/19,11:40,0.777,1.121,0.815,1.478,1.044,0.451,0.797,0.756,��쐼,5.0,��
2018/12/19,11:50,0.778,1.139,0.813,1.479,1.049,0.453,0.794,0.755,�쐼,6.7,��
2018/12/19,12:00,0.779,1.145,0.815,1.481,1.047,0.453,0.797,0.758,�쐼,5.7,��
2018/12/19,12:10,0.778,1.147,0.817,1.482,-,0.453,0.797,0.759,��쐼,6.5,��
2018/12/19,12:20,0.778,1.145,0.814,1.481,-,0.453,0.799,0.757,��,6.2,��
2018/12/19,12:30,0.778,1.146,0.818,1.483,1.032,0.454,0.797,0.758,��쓌,8.6,��
2018/12/19,12:40,0.779,1.145,0.816,1.481,1.041,0.454,0.800,0.759,��쓌,9.9,��
2018/12/19,12:50,0.778,1.145,0.815,1.482,1.052,0.453,0.799,0.757,��쓌,9.8,��
2018/12/19,13:00,0.777,1.143,0.814,1.483,1.053,0.455,0.799,0.757,��쓌,11.0,��
2018/12/19,13:10,0.778,1.145,0.815,1.484,1.052,0.454,0.801,0.754,��쓌,9.8,��
2018/12/19,13:20,0.777,1.144,0.814,1.481,1.053,0.453,0.799,0.752,��쓌,9.4,��
2018/12/19,13:30,0.776,1.143,0.814,1.480,1.054,0.455,0.799,0.756,��쓌,7.0,��
2018/12/19,13:40,0.778,1.144,0.813,1.481,1.055,0.454,0.799,0.754,��,4.8,��
2018/12/19,13:50,0.779,1.143,0.814,1.484,1.056,0.454,0.799,0.754,�쐼,7.4,��
2018/12/19,14:00,0.781,1.146,0.816,1.484,1.054,-,0.800,0.755,�쐼,7.3,��
2018/12/19,14:10,0.780,1.144,0.817,1.484,1.054,-,0.800,0.754,�쐼,6.1,��
2018/12/19,14:20,0.780,1.146,0.817,1.480,1.056,0.451,0.799,0.754,���쐼,8.2,��
2018/12/19,14:30,0.782,1.146,0.818,1.483,1.054,0.455,0.800,0.756,���쐼,5.5,��
2018/12/19,14:40,0.781,1.146,0.817,1.481,1.055,0.456,0.799,0.755,�쐼,4.4,��
2018/12/19,14:50,0.779,1.145,0.817,1.480,1.055,0.456,0.800,0.755,�쐼,5.1,��
2018/12/19,15:00,0.780,1.148,0.817,1.481,1.055,0.455,0.800,0.756,�쐼,5.1,��
2018/12/19,15:10,0.780,1.149,0.815,1.483,1.055,0.457,0.801,0.757,���쐼,7.0,��
2018/12/19,15:20,0.777,1.151,0.817,1.484,1.056,-,0.798,0.758,���쐼,7.1,��
2018/12/19,15:30,0.779,1.151,0.817,1.481,1.054,0.452,0.800,0.758,���쐼,6.1,��
2018/12/19,15:40,0.780,1.151,0.815,1.483,1.051,0.455,0.799,0.758,��,5.3,��
2018/12/19,15:50,0.780,1.152,0.815,1.483,1.056,0.458,0.799,0.758,���k��,4.2,�L
2018/12/19,16:00,0.781,1.152,0.817,1.478,1.054,0.455,0.799,0.756,���k��,5.4,��
2018/12/19,16:10,0.781,1.152,0.815,1.478,1.055,0.456,0.799,0.758,���k��,7.4,��
2018/12/19,16:20,0.780,1.154,0.817,-,1.054,0.456,0.797,0.758,���k��,7.8,�L
2018/12/19,16:30,0.781,1.154,0.817,1.482,1.056,0.456,0.799,0.757,���k��,8.4,�L
2018/12/19,16:40,0.780,1.153,0.815,1.482,1.054,0.456,0.797,0.758,���k��,7.6,�L
2018/12/19,16:50,0.778,1.156,0.816,1.484,1.056,0.455,0.798,0.756,���k��,6.8,��
2018/12/19,17:00,0.780,1.155,0.816,1.483,1.054,0.456,0.798,0.758,���k��,10.5,�L
2018/12/19,17:10,0.779,1.153,0.818,1.484,1.054,0.456,0.797,0.758,���k��,10.2,�L
2018/12/19,17:20,0.778,1.149,0.817,-,1.047,0.458,0.797,0.756,���쐼,9.9,�L
2018/12/19,17:30,0.778,1.148,0.815,-,1.047,0.458,0.794,0.755,�쐼,7.3,�L
2018/12/19,17:40,0.775,1.146,0.815,1.475,1.047,0.456,0.796,0.755,�쐼,7.2,��
2018/12/19,17:50,0.777,1.146,0.816,1.478,1.046,0.457,0.796,0.756,��쐼,6.7,��
2018/12/19,18:00,0.774,1.146,0.814,1.478,1.045,0.456,0.797,0.755,��쐼,5.2,��
2018/12/19,18:10,0.776,1.145,0.814,1.481,1.044,0.456,0.797,0.756,�쐼,4.6,��
2018/12/19,18:20,0.777,1.144,0.812,1.479,1.044,0.452,0.797,0.756,��쐼,3.6,��
2018/12/19,18:30,0.777,1.143,0.814,1.476,1.043,0.455,0.797,0.754,��,4.1,��
2018/12/19,18:40,0.774,1.142,0.811,1.475,1.046,0.453,0.798,0.754,���쓌,2.0,��
2018/12/19,18:50,0.776,1.144,0.809,1.477,1.040,0.453,0.797,0.754,�쓌,2.0,��
2018/12/19,19:00,0.776,1.144,0.808,1.477,1.042,0.453,0.796,0.755,�쓌,2.2,��
2018/12/19,19:10,0.774,1.143,0.806,1.475,1.040,0.453,0.794,0.755,���k��,0.8,��
2018/12/19,19:20,0.774,1.144,0.807,1.474,1.042,0.452,0.796,0.754,�k�k��,2.2,��
2018/12/19,19:30,0.775,1.143,0.806,1.475,1.040,0.452,0.795,0.755,�k�k��,2.3,��
2018/12/19,19:40,0.773,1.144,0.808,1.473,1.042,0.452,0.796,0.755,���k��,2.5,��
2018/12/19,19:50,0.773,1.143,0.806,1.474,1.042,0.453,0.796,0.754,�k��,3.5,��
2018/12/19,20:00,0.772,1.142,0.806,1.475,1.043,0.451,0.794,0.753,���k��,2.0,��
2018/12/19,20:10,0.775,1.141,0.805,1.476,1.041,0.452,0.796,0.754,�k��,1.5,��
2018/12/19,20:20,0.772,1.142,0.805,1.473,1.040,0.452,0.794,0.755,���k��,0.6,��
2018/12/19,20:30,0.772,1.141,0.806,1.475,1.042,0.451,0.796,0.753,�k,1.7,��
2018/12/19,20:40,0.772,1.142,0.808,1.475,1.039,0.451,0.795,0.754,�k�k��,1.1,��
2018/12/19,20:50,0.771,1.141,0.807,1.473,1.042,0.450,0.797,0.755,�k��,3.3,��
2018/12/19,21:00,0.772,1.142,0.807,1.475,1.040,0.450,0.795,0.755,�k�k��,3.4,��
2018/12/19,21:10,0.774,1.142,0.806,1.475,1.040,0.451,0.796,0.755,�k�k��,5.0,��
2018/12/19,21:20,0.772,1.142,0.806,1.475,1.039,0.450,0.795,0.754,�k��,4.9,��
2018/12/19,21:30,0.772,1.141,0.806,1.474,1.039,0.451,0.796,0.754,���k��,4.3,��
2018/12/19,21:40,0.772,1.143,0.808,1.474,1.039,0.451,0.793,0.754,���쐼,3.3,��
2018/12/19,21:50,0.773,1.142,0.808,1.472,1.042,0.450,0.794,0.754,�쐼,3.5,��
2018/12/19,22:00,0.771,1.142,0.807,1.473,1.042,0.451,0.795,0.753,��,1.7,��
2018/12/19,22:10,0.772,1.140,0.808,1.475,1.040,0.452,0.794,0.754,�k��,2.9,��
2018/12/19,22:20,0.772,1.141,0.805,1.472,1.040,0.449,0.796,0.754,���k��,3.6,��
2018/12/19,22:30,0.771,1.142,0.807,1.476,1.040,0.451,0.795,0.754,���k��,4.1,��
2018/12/19,22:40,0.771,1.142,0.804,1.474,1.039,0.452,0.797,0.753,��,4.6,��
2018/12/19,22:50,0.772,1.140,0.806,1.477,1.041,0.451,0.794,0.753,�k��,5.5,��
2018/12/19,23:00,0.771,1.142,0.805,1.474,1.039,0.450,0.795,0.752,�k��,5.0,��
2018/12/19,23:10,0.772,1.142,0.808,1.473,1.042,0.449,0.794,0.754,���k��,4.7,��
2018/12/19,23:20,0.772,1.137,0.807,1.476,1.039,0.451,0.793,0.754,���k��,5.1,��
2018/12/19,23:30,0.770,1.143,0.806,1.476,1.040,0.451,0.795,0.754,�k��,5.0,��
2018/12/19,23:40,0.773,1.141,0.808,1.475,1.042,0.451,0.794,0.754,���k��,4.1,��
2018/12/19,23:50,0.772,1.141,0.808,1.474,1.041,0.450,0.796,0.754,�k��,3.4,��
